Flag for Albania Weather past 2 weeks in Tirana, Albania

Now
93 °F

Passing clouds.


Feels Like: 96 °F
Forecast: 62 / 98 °F
Wind: 12 mph from North

Location: Tirana Airport

Current Time: Aug 29, 2015 at 3:51:56 PM

Latest Report: Aug 29, 2015 at 3:20 PM


Visibility: N/A

Pressure: 30.07 "Hg

Humidity: 41%

Dew point: 66 °F

Location of TiranaLocation

Historic Weather in Tirana — Graph

°F

Tirana temperature yesterday

Maximum temperature yesterday: 93 °F (at 1:50 PM)
Minimum temperature yesterday: 72 °F (at 2:50 AM)
Average temperature yesterday: 81 °F

Past Weeks' High & Low Weather Summary

 TemperatureHumidityPressure
High97 °F (Aug 29, 12:50 PM)94% (Aug 16, 3:20 AM)30.12 "Hg (Aug 16, 3:20 AM)
Low61 °F (Aug 21, 6:20 AM)27% (Aug 18, 3:20 PM)29.77 "Hg (Aug 14, 4:20 PM)
Average78 °F63%29.94 "Hg
* Reported Aug 14 2:20 PM — Aug 29 2:50 PM, Tirana, Weather by CustomWeather, © 2015

Note: Actual official high and low records may vary slightly from our data, if they occured in-between our weather recording intervals... More about our weather records

Advertising

Tirana weather history for previous 24 hours

 ConditionsComfort  
Time TempWeatherWind HumidityBarometerVisibility
2:50 PM
Sat, Aug 29
93 °FSunny.13 mph41%30.07 "Hg10 mi
2:20 PM95 °FPassing clouds.12 mph36%30.07 "HgN/A
1:50 PM97 °FPassing clouds.12 mph32%30.07 "HgN/A
1:20 PM97 °FPassing clouds.10 mph37%30.07 "HgN/A
12:50 PM97 °FPassing clouds.9 mph37%30.09 "HgN/A
12:20 PM95 °FPassing clouds.8 mph41%30.09 "HgN/A
11:50 AM93 °FPassing clouds.8 mph41%30.09 "HgN/A
11:20 AM90 °FPassing clouds.5 mph43%30.09 "HgN/A
10:50 AM90 °FPassing clouds.5 mph43%30.12 "HgN/A
9:50 AM86 °FSunny.No wind52%30.12 "Hg10 mi
9:20 AM79 °FSunny.2 mph61%30.12 "Hg10 mi
8:50 AM79 °FSunny.2 mph61%30.12 "Hg10 mi
7:50 AM73 °FSunny.No wind78%30.12 "Hg10 mi
7:20 AM72 °FSunny.2 mph83%30.09 "Hg10 mi
6:50 AM70 °FClear.No wind88%30.09 "Hg10 mi
6:20 AM70 °FClear.3 mph88%30.09 "Hg10 mi
5:50 AM68 °FClear.2 mph88%30.09 "Hg10 mi
5:20 AM70 °FClear.No wind88%30.09 "Hg10 mi
4:50 AM70 °FClear.2 mph88%30.09 "Hg10 mi
4:20 AM70 °FClear.2 mph88%30.07 "Hg10 mi
3:50 AM72 °FClear.5 mph83%30.07 "Hg10 mi
3:20 AM70 °FClear.3 mph83%30.07 "Hg10 mi
2:50 AM72 °FClear.2 mph78%30.07 "Hg10 mi
2:20 AM72 °FClear.3 mph83%30.07 "Hg10 mi
1:50 AM72 °FClear.No wind83%30.09 "Hg10 mi
1:20 AM73 °FClear.3 mph74%30.09 "Hg10 mi
12:50 AM73 °FClear.3 mph78%30.09 "Hg10 mi
12:20 AM72 °FClear.No wind78%30.09 "Hg10 mi
11:50 PM
Fri, Aug 28
73 °FClear.3 mph74%30.09 "Hg10 mi
11:20 PM73 °FClear.3 mph78%30.09 "Hg10 mi
10:50 PM73 °FClear.2 mph83%30.09 "Hg10 mi
10:20 PM75 °FClear.3 mph83%30.09 "Hg10 mi
9:50 PM75 °FClear.No wind83%30.09 "Hg10 mi
9:20 PM75 °FClear.No wind78%30.07 "Hg10 mi
8:50 PM77 °FClear.No wind74%30.07 "Hg10 mi
8:20 PM79 °FSunny.3 mph70%30.07 "Hg10 mi
7:50 PM77 °FPassing clouds.3 mph69%30.07 "HgN/A
7:20 PM79 °FSunny.6 mph70%30.04 "Hg10 mi
6:50 PM82 °FSunny.6 mph58%30.04 "Hg10 mi
6:20 PM84 °FSunny.7 mph55%30.04 "Hg10 mi
5:50 PM84 °FSunny.8 mph55%30.04 "Hg10 mi
5:20 PM88 °FSunny.10 mph52%30.04 "Hg10 mi
4:50 PM90 °FSunny.10 mph52%30.04 "Hg10 mi
4:20 PM91 °FSunny.12 mph49%30.04 "Hg10 mi
3:50 PM91 °FPassing clouds.10 mph49%30.04 "HgN/A
3:20 PM93 °FPassing clouds.9 mph47%30.04 "HgN/A
Weather by CustomWeather, © 2015

See weather overviewHow to use our weather pages